This is the latest recevied weather packets stored in our database for station/object 9A7DI-13. If no packets are shown the sender has not sent any weather packets the latest 10 day(s).
| Time | Temp. | Humidity | Pressure | Rain* | Wind** | Luminosity | Snow |
|---|---|---|---|---|---|---|---|
| 1788289606 | 19.44° C | 67% | 1028.5 hPa | - | - | - | - |
| 1788289006 | 19.44° C | 69% | 1028.5 hPa | - | - | - | - |
| 1788288406 | 19.44° C | 71% | 1028.5 hPa | - | - | - | - |
| 1788287806 | 20.56° C | 65% | 1028.4 hPa | - | - | - | - |
| 1788287206 | 20.56° C | 66% | 1028.2 hPa | - | - | - | - |
| 1788286607 | 20.56° C | 66% | 1028.1 hPa | - | - | - | - |
| 1788286006 | 22.22° C | 62% | 1028 hPa | - | - | - | - |
| 1788285406 | 22.22° C | 60% | 1027.8 hPa | - | - | - | - |
| 1788284806 | 22.78° C | 60% | 1027.7 hPa | - | - | - | - |
| 1788284206 | 22.78° C | 56% | 1027.6 hPa | - | - | - | - |
| 1788283607 | 23.33° C | 56% | 1027.5 hPa | - | - | - | - |
| 1788283006 | 23.89° C | 55% | 1027.6 hPa | - | - | - | - |
| 1788282406 | 24.44° C | 50% | 1027.5 hPa | - | - | - | - |
| 1788281807 | 25° C | 48% | 1027.5 hPa | - | - | - | - |
| 1788281206 | 26.11° C | 44% | 1027.5 hPa | - | - | - | - |
| 1788280607 | 26.67° C | 31% | 1027.5 hPa | - | - | - | - |
| 1788280007 | 27.22° C | 30% | 1027.5 hPa | - | - | - | - |
| 1788279407 | 27.22° C | 31% | 1027.5 hPa | - | - | - | - |
| 1788278826 | 27.22° C | 30% | 1027.5 hPa | - | - | - | - |
| 1788278206 | 27.78° C | 29% | 1027.6 hPa | - | - | - | - |
| 1788277607 | 27.78° C | 30% | 1027.6 hPa | - | - | - | - |
| 1788277007 | 27.78° C | 29% | 1027.6 hPa | - | - | - | - |
| 1788276407 | 27.78° C | 30% | 1027.6 hPa | - | - | - | - |
| 1788275806 | 27.78° C | 30% | 1027.7 hPa | - | - | - | - |
| 1788275207 | 27.78° C | 30% | 1027.6 hPa | - | - | - | - |
* Rain since midnight (hover to see other rain measurements)
** Current wind speed in m/s (hover to see current wind gust speed)